Flag for Poland Weather past 2 weeks in Legnica, Poland

Now
64 °F

Overcast.


Feels Like: 64 °F
Forecast: 58 / 77 °F
Wind: 2 mph from South

Location: Wroclaw Ii

Current Time: Sep 19, 2014 at 10:03:54 PM

Latest Report: Sep 19, 2014 at 9:00 PM


Visibility: 19 mi

Pressure: 29.96 "Hg

Humidity: 80%

Dew point: 58 °F

Location of LegnicaLocation

Historic Weather in Legnica — Graph

°F

Legnica temperature yesterday

Maximum temperature yesterday: 73 °F (at 2:00 PM)
Minimum temperature yesterday: 52 °F (at 6:00 AM)
Average temperature yesterday: 61 °F

Past Weeks' High & Low Weather Summary

 TemperatureHumidityPressure
High82 °F (Sep 7, 5:00 PM)98% (Sep 13, 3:00 AM)30.16 "Hg (Sep 13, 3:00 AM)
Low52 °F (Sep 18, 6:00 AM)46% (Sep 7, 5:00 PM)29.90 "Hg (Sep 6, 6:00 PM)
Average64 °F79%30.03 "Hg
* Reported Sep 4 8:00 PM — Sep 19 8:00 PM, Legnica, Weather by CustomWeather, © 2014

Note: Actual official high and low records may vary slightly from our data, if they occured in-between our weather recording intervals... More about our weather records

Advertising

Legnica weather history for previous 24 hours

 ConditionsComfort  
Time TempWeatherWind HumidityBarometerVisibility
8:00 PM
Sep 19
66 °FOvercast.2 mph75%29.96 "Hg19 mi
7:00 PM68 °FPassing clouds.2 mph70%29.96 "Hg19 mi
6:00 PM69 °FPartly sunny.2 mph69%29.96 "Hg19 mi
5:00 PM72 °FPartly sunny.5 mph61%29.96 "Hg25 mi
4:00 PM73 °FPartly sunny.5 mph60%29.97 "Hg25 mi
3:00 PM74 °FPartly sunny.6 mph54%29.97 "Hg25 mi
2:00 PM73 °FPartly sunny.6 mph57%29.98 "Hg22 mi
1:00 PM72 °FPartly sunny.6 mph57%29.99 "Hg19 mi
12:00 PM72 °FPartly sunny.7 mph59%30.00 "Hg19 mi
11:00 AM69 °FPartly sunny.7 mph61%30.01 "Hg19 mi
10:00 AM65 °FScattered clouds.5 mph69%30.01 "Hg16 mi
9:00 AM62 °FPartly sunny.6 mph76%30.02 "Hg12 mi
8:00 AM58 °FPartly sunny.7 mph84%30.03 "Hg12 mi
7:00 AM56 °FOvercast.5 mph87%30.03 "Hg12 mi
5:00 AM55 °FOvercast.5 mph90%30.03 "Hg19 mi
2:00 AM56 °FOvercast.3 mph89%30.04 "Hg19 mi
11:00 PM
Sep 18
57 °FOvercast.3 mph85%30.05 "Hg19 mi
10:00 PM58 °FOvercast.3 mph82%30.06 "Hg19 mi
Weather by CustomWeather, © 2014

See weather overviewHow to use our weather pages